Regional Weather Roundup
Issued by NWS Jackson, KY

Home | Current Version | Previous Version | Graphics & Text | Print | Product List | Glossary On
Versions: 1 2 3 4 5 6 7 8 9 10 11 12 13 14 15 16 17 18 19 20 21 22 23 24 25 26 27 28
000
ASUS43 KJKL 271810
RWRJKL

EAST KENTUCKY HOURLY WEATHER ROUNDUP
NATIONAL WEATHER SERVICE JACKSON KY
200 PM EDT TUE JUN 27 2017

NOTE: "FAIR" INDICATES FEW OR NO CLOUDS BELOW 12,000 FEET WITH
NO SIGNIFICANT WEATHER AND/OR OBSTRUCTIONS TO VISIBILITY.

* THESE REPORTS ARE NOT UNDER NWS QUALITY CONTROL AND MAY NOT
  REPORT WEATHER SUCH AS PRECIPITATION AND FOG.

KYZ079-080-083-085-087-088-110-112-115-119-120-271900
...EASTERN KENTUCKY...

CITY           SKY/WX    TMP DP  RH WIND       PRES   REMARKS
JACKSON        SUNNY     72  49  44 NW8       30.14F
6HR MIN TEMP:  59; 6HR MAX TEMP:  73;

LONDON         MOSUNNY   76  49  38 NW8       30.14F
6HR MIN TEMP:  60; 6HR MAX TEMP:  76;

SOMERSET*      MOSUNNY   73  52  46 N7        30.15F
MONTICELLO*    MOSUNNY   74  54  49 N12G18    30.16F
6HR MIN TEMP:  61; 6HR MAX TEMP:  75;

WILLIAMSBURG*  PTCLDY    73  54  49 NE5       30.14F
MIDDLESBORO*   MOSUNNY   76  53  43 NW8       30.15S
6HR MIN TEMP:  57; 6HR MAX TEMP:  77;

HARLAN APT*    CLOUDY    75  45  33 W8G17     30.15F
PIKE CO APT*   PTSUNNY   69  51  52 NW8       30.14S
BIG SANDY APT* CLEAR     73  51  45 W5        30.14S
6HR MIN TEMP:  58; 6HR MAX TEMP:  73;

MOREHEAD APT*  PTCLDY    72  48  43 W5G14     30.16F HAZE
ASHLAND*       PTSUNNY   73  55  53 CALM      30.11S
$$

KYZ035-036-041-042-044-050-067-078-099-271900
...CENTRAL KENTUCKY...

CITY           SKY/WX    TMP DP  RH WIND       PRES   REMARKS
MT STERLING*   MOSUNNY   73  52  46 W7        30.16F
FLEMING/MASON* MOSUNNY   70  48  45 W5        30.16S
DANVILLE*      MOSUNNY   73  50  43 N7        30.15F
LEXINGTON      MOSUNNY   74  50  42 NW5       30.15F
6HR MIN TEMP:  59; 6HR MAX TEMP:  74;

FRANKFORT      MOSUNNY   74  49  41 VRB6      30.14F
6HR MIN TEMP:  60; 6HR MAX TEMP:  74;

LOUISVILLE     MOSUNNY   76  52  43 VRB3      30.13F
6HR MIN TEMP:  63; 6HR MAX TEMP:  77;

LEBANON*         N/A    N/A N/A N/A MISG        N/A
GLASGOW*       SUNNY     76  52  42 E3        30.14F
BOWLING GREEN  MOSUNNY   78  55  44 VRB5      30.14F
6HR MIN TEMP:  63; 6HR MAX TEMP:  78;

$$

KYZ091>093-OHZ055-061-077-WVZ005-015-034-035-042-271900
...SOUTHERN OHIO/WEST VIRGINIA...

CITY           SKY/WX    TMP DP  RH WIND       PRES   REMARKS
COVINGTON      PTSUNNY   72  51  47 NW10      30.15S
COLUMBUS       MOSUNNY   70  51  51 NW5       30.11F
DAYTON         MOSUNNY   69  47  45 N9        30.15S
WILMINGTON     PTSUNNY   69  50  50 NW8G17    30.14S
HUNTINGTON     MOSUNNY   73  46  38 W8        30.12F
CHARLESTON     MOSUNNY   72  47  40 W9        30.12S
PINEVILLE*     MOSUNNY   73  47  38 MISG      30.18F
BECKLEY        MOSUNNY   66  45  46 NW12      30.15S
BLUEFIELD      PTSUNNY   62  46  55 NW7       30.17S
LOGAN CO APT*    N/A     72  50  46 CALM      30.14S
$$

VAZ002-007-008-TNZ017-027-036-066-071-271900
...SOUTHWEST VIRGINIA/EAST TENNESSEE...

CITY           SKY/WX    TMP DP  RH WIND       PRES   REMARKS
WISE*          CLOUDY    68  46  45 W7        30.19F
JONESVILLE*      N/A     75  50  41 N6        30.16S
ABINGDON*      CLOUDY    71  50  48 NW8       30.16F
BRISTOL        PTSUNNY   71  51  49 VRB5      30.15S
MORRISTOWN*    CLEAR     73  50  43 N6        30.14F
SEVIERVILLE*   CLEAR     73  50  43 VRB6      30.13F
KNOXVILLE      CLOUDY    75  53  46 NE8       30.13S
LAFOLLETTE*    PTCLDY    73  54  49 SW5       30.17F
OAK RIDGE      MOSUNNY   76  51  41 VRB3      30.14F
CROSSVILLE     SUNNY     73  51  46 VRB7      30.17F
NASHVILLE      MOSUNNY   82  53  36 N3        30.13F
$$

...KEY TO REMARKS...
VSB - VISIBILITY IN MILES
WCI - WIND CHILL INDEX
HX  - HEAT INDEX

$$




USA.gov is the U.S. government's official web portal to all federal, state and local government web resources and services.